Regional Weather Roundup
Issued by NWS Raleigh/Durham, NC

Home | Current Version | Previous Version | Text Only | Print | Product List | Glossary On
Versions: 1 2 3 4 5 6 7 8 9 10 11 12 13 14 15 16 17 18 19 20 21 22 23 24 25 26 27 28 29 30 31 32 33 34 35 36 37 38 39 40 41 42 43 44 45 46 47 48 49 50
000
ASUS42 KRAH 280410
RWRRAH
NORTH CAROLINA WEATHER ROUNDUP
NATIONAL WEATHER SERVICE RALEIGH NC
1200 AM EDT SAT MAY 28 2016

NOTE: "FAIR" INDICATES FEW OR NO CLOUDS BELOW 12,000 FEET WITH NO
SIGNIFICANT WEATHER AND/OR OBSTRUCTIONS TO VISIBILITY.

NCZ001-053-055-056-065-067-280500-
WESTERN NORTH CAROLINA

CITY           SKY/WX    TMP DP  RH WIND       PRES   REMARKS
ASHEVILLE      PTCLDY    65  61  87 CALM      30.19R
JEFFERSON      PTCLDY    64  58  82 CALM      30.23S
MORGANTON      PTCLDY    64  64  98 CALM      30.19R
HICKORY        CLEAR     70  64  81 CALM      30.14S
RUTHERFORDTON  PTCLDY    67  66  96 CALM      30.15R
MOUNT AIRY     CLOUDY    73  66  78 CALM      30.17S
BOONE          CLEAR     61  60  96 CALM      30.24R
$$

NCZ021-022-025-041-071-084-088-280500-
CENTRAL NORTH CAROLINA

CITY           SKY/WX    TMP DP  RH WIND       PRES   REMARKS
CHARLOTTE      PTCLDY    72  59  63 S7        30.14R
GREENSBORO     PTCLDY    73  62  68 S12       30.15R
WINSTON-SALEM  PTCLDY    70  63  78 CALM      30.15S
RALEIGH-DURHAM PTCLDY    72  56  57 S6        30.16R
FORT BRAGG     CLEAR     70  59  66 S1        30.14R
FAYETTEVILLE   CLEAR     65  58  78 CALM      30.14S
BURLINGTON     CLEAR     71  59  65 SE3       30.15R
LAURINBURG     CLEAR     65  57  75 CALM      30.15R
$$

NCZ011-015-027-028-043-044-047-080-103-280500-
NORTHEASTERN NORTH CAROLINA

CITY           SKY/WX    TMP DP  RH WIND       PRES   REMARKS
ROCKY MT-WILSO CLEAR     66  58  75 CALM      30.16R
GREENVILLE     CLEAR     66  61  82 CALM      30.18R
WASHINGTON     CLEAR     65  61  86 CALM      30.16S
ELIZABETH CITY CLEAR     69  64  84 SE5       30.17R
MANTEO         NOT AVBL
CAPE HATTERAS  PTCLDY    70  65  84 CALM      30.17R
$$

NCZ078-087-090-091-093-098-101-280500-
SOUTHEASTERN NORTH CAROLINA

CITY           SKY/WX    TMP DP  RH WIND       PRES   REMARKS
LUMBERTON      CLEAR     62  58  86 CALM      30.14R
GOLDSBORO      CLEAR     65  62  91 E2        30.14R
KINSTON        CLEAR     63  59  87 CALM      30.17R
KENANSVILLE    CLOUDY    60  58  90 CALM      30.16S
NEW BERN       CLEAR     61  58  90 CALM      30.16S
CHERRY POINT   CLOUDY    67  61  81 E3        30.16S
BEAUFORT       PTCLDY    69  65  86 CALM      30.14F
JACKSONVILLE   CLOUDY    71  64  78 E6        30.14S
WILMINGTON     PTCLDY    68  65  90 N3        30.14R
$$




USA.gov is the U.S. government's official web portal to all federal, state and local government web resources and services.